Camanche, IA

6:10 PM CDT on July 24, 2016 (GMT -0500)
Clinton Municipal

Weather History for KCWI - January, 2012

Change the Weather History Date:

Monday, January 30, 2012

  Actual Average Record
Temperature  
Mean Temperature 40 °F -  
Max Temperature 55 °F 30 °F 57 °F (1988)
Min Temperature 24 °F 14 °F -20 °F (1966)
Degree Days  
Heating Degree Days 26    
Moisture  
Dew Point 28 °F    
Average Humidity 67    
Maximum Humidity 80    
Minimum Humidity 47    
Precipitation  
Precipitation 0.00 in - - ()
Sea Level Pressure  
Sea Level Pressure 29.91 in    
Wind  
Wind Speed 12 mph (South)    
Max Wind Speed 20 mph    
Max Gust Speed 26 mph    
Visibility 10 miles    
Events      
Averages and records for this station are not official NWS values.
T = Trace of Precipitation, MM = Missing Value Source: NWS Daily Summary

Daily Weather History Graph

Daily Weather History Graph

Search for Another Location

Airport or City:

Trip Planner

Search our weather history database for the weather conditions in past years. The results will help you decide how hot, cold, wet, or windy it might be!

Date:

Astronomy

Jan. 30, 2012 Rise Set
Actual Time 7:16 AM CST 5:13 PM CST
Civil Twilight 6:46 AM CST 5:43 PM CST
Nautical Twilight 6:13 AM CST 6:16 PM CST
Astronomical Twilight 5:40 AM CST 6:49 PM CST
Moon 10:30 AM CST (1/30) 12:05 AM CST (1/30)
Length of Visible Light 10h 56m
Length of Day
9h 57m
Waxing Crescent, 46% of the Moon is Illuminated
Jan 30
Waxing Crescent
Jan 30
First Quarter
Feb 7
Full
Feb 14
Last Quarter
Feb 21
New

Hourly Weather History & Observations

Time (CST) Temp. Windchill Dew Point Humidity Pressure Visibility Wind Dir Wind Speed Gust Speed Precip Events Conditions
12:15 AM 24.8 °F 14.6 °F 17.6 °F 74% 30.15 in 10.0 mi ESE 10.4 mph - N/A   Overcast
12:35 AM 24.8 °F 14.0 °F 17.6 °F 74% 30.14 in 10.0 mi ESE 11.5 mph - N/A   Overcast
12:55 AM 24.8 °F 14.6 °F 19.4 °F 80% 30.12 in 10.0 mi ESE 10.4 mph - N/A   Overcast
1:15 AM 26.6 °F 15.7 °F 19.4 °F 74% 30.11 in 10.0 mi SE 12.7 mph - N/A   Overcast
1:35 AM 26.6 °F 16.2 °F 21.2 °F 80% 30.11 in 10.0 mi SE 11.5 mph - N/A   Overcast
1:55 AM 26.6 °F 15.7 °F 19.4 °F 74% 30.10 in 10.0 mi SE 12.7 mph - N/A   Overcast
2:15 AM 26.6 °F 15.2 °F 19.4 °F 74% 30.07 in 10.0 mi SE 13.8 mph - N/A   Overcast
2:35 AM 26.6 °F 14.7 °F 19.4 °F 74% 30.07 in 10.0 mi SSE 15.0 mph - N/A   Mostly Cloudy
2:55 AM 26.6 °F 14.3 °F 21.2 °F 80% 30.05 in 10.0 mi SSE 16.1 mph - N/A   Partly Cloudy
3:15 AM 28.4 °F 16.6 °F 21.2 °F 74% 30.05 in 10.0 mi SE 16.1 mph - N/A   Mostly Cloudy
3:35 AM 28.4 °F 16.6 °F 21.2 °F 74% 30.05 in 10.0 mi SE 16.1 mph - N/A   Overcast
3:55 AM 28.4 °F 16.6 °F 21.2 °F 74% 30.02 in 10.0 mi SE 16.1 mph 20.7 mph N/A   Overcast
4:15 AM 28.4 °F 16.6 °F 21.2 °F 74% 30.01 in 10.0 mi SSE 16.1 mph - N/A   Overcast
4:35 AM 28.4 °F 17.5 °F 21.2 °F 74% 30.00 in 10.0 mi SSE 13.8 mph 19.6 mph N/A   Scattered Clouds
4:55 AM 28.4 °F 16.6 °F 21.2 °F 74% 29.98 in 10.0 mi SSE 16.1 mph - N/A   Clear
5:15 AM 28.4 °F 17.5 °F 21.2 °F 74% 29.97 in 10.0 mi SSE 13.8 mph - N/A   Scattered Clouds
5:35 AM 28.4 °F 17.5 °F 21.2 °F 74% 29.96 in 10.0 mi SSE 13.8 mph - N/A   Scattered Clouds
5:55 AM 30.2 °F 20.8 °F 21.2 °F 69% 29.96 in 10.0 mi SSE 11.5 mph - N/A   Partly Cloudy
6:15 AM 30.2 °F 20.8 °F 21.2 °F 69% 29.95 in 10.0 mi SSE 11.5 mph - N/A   Mostly Cloudy
6:35 AM 30.2 °F 20.2 °F 21.2 °F 69% 29.94 in 10.0 mi SSE 12.7 mph - N/A   Overcast
6:55 AM 30.2 °F 19.8 °F 23.0 °F 75% 29.93 in 10.0 mi SSE 13.8 mph - N/A   Overcast
7:15 AM 30.2 °F 20.8 °F 23.0 °F 75% 29.93 in 10.0 mi SSE 11.5 mph - N/A   Mostly Cloudy
7:35 AM 30.2 °F 21.3 °F 23.0 °F 75% 29.92 in 10.0 mi SSE 10.4 mph - N/A   Partly Cloudy
7:55 AM 30.2 °F 20.2 °F 23.0 °F 75% 29.92 in 10.0 mi SSE 12.7 mph - N/A   Partly Cloudy
8:15 AM 32.0 °F 23.0 °F 24.8 °F 75% 29.92 in 10.0 mi South 11.5 mph - N/A   Mostly Cloudy
8:35 AM 33.8 °F 25.8 °F 26.6 °F 75% 29.92 in 10.0 mi South 10.4 mph - N/A   Mostly Cloudy
8:55 AM 33.8 °F 24.3 °F 26.6 °F 75% 29.90 in 10.0 mi South 13.8 mph - N/A   Mostly Cloudy
9:15 AM 35.6 °F 27.5 °F 26.6 °F 70% 29.90 in 10.0 mi South 11.5 mph - N/A   Overcast
9:35 AM 35.6 °F 29.2 °F 28.4 °F 75% 29.89 in 10.0 mi South 8.1 mph - N/A   Overcast
10:15 AM 39.2 °F 30.8 °F 28.4 °F 65% 29.87 in 10.0 mi SSW 15.0 mph 19.6 mph N/A   Mostly Cloudy
10:35 AM 41.0 °F 34.3 °F 30.2 °F 65% 29.86 in 10.0 mi SSW 11.5 mph - N/A   Scattered Clouds
10:55 AM 41.0 °F 34.3 °F 30.2 °F 65% 29.86 in 10.0 mi SSW 11.5 mph - N/A   Mostly Cloudy
11:15 AM 44.6 °F 38.4 °F 32.0 °F 61% 29.86 in 10.0 mi SW 12.7 mph - N/A   Partly Cloudy
11:35 AM 46.4 °F 40.1 °F 33.8 °F 62% 29.85 in 10.0 mi SW 15.0 mph - N/A   Clear
11:55 AM 48.2 °F - 35.6 °F 62% 29.84 in 10.0 mi SW 13.8 mph - N/A   Clear
12:15 PM 48.2 °F - 35.6 °F 62% 29.83 in 10.0 mi SW 10.4 mph - N/A   Clear
12:35 PM 50.0 °F - 35.6 °F 58% 29.82 in 10.0 mi SW 12.7 mph - N/A   Clear
12:55 PM 51.8 °F - 35.6 °F 54% 29.81 in 10.0 mi SW 15.0 mph - N/A   Clear
1:15 PM 53.6 °F - 35.6 °F 51% 29.79 in 10.0 mi SW 18.4 mph - N/A   Clear
1:35 PM 53.6 °F - 35.6 °F 51% 29.79 in 10.0 mi SW 17.3 mph 26.5 mph N/A   Clear
1:55 PM 53.6 °F - 35.6 °F 51% 29.79 in 10.0 mi SW 19.6 mph 25.3 mph N/A   Clear
2:15 PM 53.6 °F - 35.6 °F 51% 29.79 in 10.0 mi WSW 15.0 mph - N/A   Clear
2:35 PM 53.6 °F - 35.6 °F 51% 29.79 in 10.0 mi WSW 12.7 mph - N/A   Clear
2:55 PM 55.4 °F - 37.4 °F 51% 29.79 in 10.0 mi WSW 9.2 mph - N/A   Clear
3:15 PM 55.4 °F - 35.6 °F 47% 29.79 in 10.0 mi WSW 15.0 mph 21.9 mph N/A   Clear
3:35 PM 53.6 °F - 37.4 °F 54% 29.80 in 10.0 mi WSW 6.9 mph - N/A   Clear
3:55 PM 53.6 °F - 37.4 °F 54% 29.80 in 10.0 mi SW 9.2 mph - N/A   Clear
4:15 PM 51.8 °F - 37.4 °F 58% 29.80 in 10.0 mi SW 6.9 mph - N/A   Clear
4:35 PM 51.8 °F - 35.6 °F 54% 29.80 in 10.0 mi SW 9.2 mph - N/A   Clear
4:55 PM 46.4 °F 41.5 °F 33.8 °F 62% 29.81 in 10.0 mi SW 10.4 mph - N/A   Clear
5:15 PM 46.4 °F 41.5 °F 33.8 °F 62% 29.81 in 10.0 mi SSW 10.4 mph - N/A   Clear
5:35 PM 44.6 °F 40.2 °F 32.0 °F 61% 29.81 in 10.0 mi SSW 8.1 mph - N/A   Clear
5:55 PM 44.6 °F 39.7 °F 32.0 °F 61% 29.81 in 10.0 mi SSW 9.2 mph - N/A   Clear
6:35 PM 42.8 °F 37.5 °F 32.0 °F 66% 29.81 in 10.0 mi SSW 9.2 mph - N/A   Clear
6:55 PM 42.8 °F 38.0 °F 30.2 °F 61% 29.82 in 10.0 mi SSW 8.1 mph - N/A   Clear
7:15 PM 44.6 °F 40.7 °F 32.0 °F 61% 29.82 in 10.0 mi SSW 6.9 mph - N/A   Clear
7:35 PM 44.6 °F 40.7 °F 32.0 °F 61% 29.82 in 10.0 mi SSW 6.9 mph - N/A   Clear
7:55 PM 42.8 °F 38.0 °F 33.8 °F 70% 29.82 in 10.0 mi South 8.1 mph - N/A   Clear
8:15 PM 42.8 °F 38.0 °F 33.8 °F 70% 29.82 in 10.0 mi South 8.1 mph - N/A   Clear
8:35 PM 39.2 °F 31.6 °F 32.0 °F 75% 29.82 in 10.0 mi South 12.7 mph - N/A   Clear
8:55 PM 39.2 °F 32.5 °F 32.0 °F 75% 29.82 in 10.0 mi SSW 10.4 mph - N/A   Clear
9:15 PM 39.2 °F 32.5 °F 32.0 °F 75% 29.83 in 10.0 mi SSW 10.4 mph - N/A   Clear
9:35 PM 41.0 °F 34.7 °F 32.0 °F 70% 29.83 in 10.0 mi SW 10.4 mph - N/A   Clear
9:55 PM 41.0 °F 34.3 °F 32.0 °F 70% 29.83 in 10.0 mi SW 11.5 mph - N/A   Clear
10:15 PM 41.0 °F 34.7 °F 32.0 °F 70% 29.83 in 10.0 mi SW 10.4 mph - N/A   Clear
10:35 PM 41.0 °F 34.7 °F 32.0 °F 70% 29.83 in 10.0 mi SW 10.4 mph - N/A   Clear
10:55 PM 41.0 °F 34.7 °F 32.0 °F 70% 29.83 in 10.0 mi SSW 10.4 mph - N/A   Clear
11:15 PM 42.8 °F 36.2 °F 32.0 °F 66% 29.83 in 10.0 mi SSW 12.7 mph - N/A   Clear
11:55 PM 42.8 °F 36.2 °F 33.8 °F 70% 29.84 in 10.0 mi SW 12.7 mph - N/A   Clear